Starlink 5336

operational
NORAD ID: 57138 Int'l Des: 2023-090 Owner: SPXS Country: US Constellation: starlink
LEOCIRCULAR

关于 Starlink 5336

正在加载描述...

实时位置

正在加载3D地球...

即将过境

高度历史

Altitude vs Time

uPlot chart will show altitude changes over time

两行轨道根数

1 57138U 23090AP 26062.14290382 .00043431 00000-0 31823-2 0 9997
2 57138 43.0073 297.6223 0001124 288.4213 71.6508 15.02866375149385
Epoch: Mar 3, 2026 • Age: 25 hours

当前状态

高度 559.9 km
速度 7.58 km/s
星下点 -11.30°S, 52.33°W
发射日期 Jun 23, 2023
运行时间 2.6 years
类型 internet

技术详情

分类 Payload
质量 305.00 kg
干质量 290.00 kg
总质量 305.00 kg
长度 0.20 m
直径 2.80 m
跨度 9.00 m
形状 Box + pan
制造商 SPXS
平台类型 Starlink
阶段状态 In Orbit
所有者/国家 SPXS/US

大型星座

Loading constellations...